Location: Astronomy Club of Akron Observatory
(40.9700°N, 81.5606°W)
Time: 18:36:00
(UTC-04:00)

ISS - Pass Details

Date: 16 July 2018
Orbit: 402 x 408 km, 51.6° (Epoch: 19 July)

Event Time Altitude Azimuth Distance (km) Brightness Sun altitude
Exits shadow 01:09:45 14° 35° (NE) 1,239 -0.9 -27.4°
Drops below altitude 10° 01:10:23 10° 40° (NE) 1,469 -0.5 -27.5°
Sets 01:12:35 0° 50° (NE) 2,332 0.5 -27.5°
